| time (UTC) | temp C | wind direction | speed KPH | gust KPH | rain 1hr cm | rain 24hr cm | rain mn cm | humidity % | barometer mb |
| 20260507213058 | 12 | 49 | 0.0 | 3.2 | 0.00 | 0.00 | 0.00 | 85 | 1014.6 |
| 20260507211642 | 13 | 49 | 1.6 | 3.2 | 0.00 | 0.00 | 0.00 | 82 | 1014.3 |
| 20260507210048 | 13 | 49 | 0.0 | 3.2 | 0.00 | 0.00 | 0.00 | 80 | 1014.1 |
| 20260507204540 | 14 | 49 | 0.0 | 3.2 | 0.00 | 0.00 | 0.00 | 78 | 1014.0 |
| 20260507203044 | 15 | 49 | 0.0 | 3.2 | 0.00 | 0.00 | 0.00 | 75 | 1013.9 |
| 20260507201539 | 16 | 49 | 0.0 | 3.2 | 0.00 | 0.00 | 0.00 | 73 | 1013.7 |
| 20260507200036 | 16 | 49 | 0.0 | 3.2 | 0.00 | 0.00 | 0.00 | 70 | 1013.6 |
| 20260507194604 | 17 | 49 | 0.0 | 3.2 | 0.00 | 0.00 | 0.00 | 67 | 1013.6 |
| 20260507193038 | 17 | 42 | 0.0 | 4.8 | 0.00 | 0.00 | 0.00 | 65 | 1013.4 |
| 20260507191535 | 17 | 90 | 0.0 | 4.8 | 0.00 | 0.00 | 0.00 | 63 | 1013.1 |
| 20260507190034 | 18 | 121 | 0.0 | 4.8 | 0.00 | 0.00 | 0.00 | 62 | 1013.0 |
| 20260507184537 | 18 | 123 | 3.2 | 6.4 | 0.00 | 0.00 | 0.00 | 60 | 1013.0 |
| 20260507183043 | 19 | 193 | 0.0 | 0.0 | 0.00 | 0.00 | 0.00 | 60 | 1012.8 |
| 20260507181532 | 19 | 194 | 0.0 | 1.6 | 0.00 | 0.00 | 0.00 | 59 | 1012.4 |
| 20260507180035 | 19 | 194 | 0.0 | 1.6 | 0.00 | 0.00 | 0.00 | 57 | 1012.2 |
| 20260507174530 | 20 | 193 | 0.0 | 1.6 | 0.00 | 0.00 | 0.00 | 57 | 1012.2 |
| 20260507173040 | 20 | 227 | 0.0 | 4.8 | 0.00 | 0.00 | 0.00 | 56 | 1012.1 |
| 20260507171540 | 20 | 134 | 0.0 | 4.8 | 0.00 | 0.00 | 0.00 | 57 | 1011.9 |
| 20260507170026 | 21 | 171 | 0.0 | 4.8 | 0.00 | 0.00 | 0.00 | 55 | 1011.9 |
| 20260507164531 | 21 | 146 | 1.6 | 4.8 | 0.00 | 0.00 | 0.00 | 56 | 1011.9 |
| 20260507163025 | 21 | 120 | 3.2 | 11.3 | 0.00 | 0.00 | 0.00 | 53 | 1011.9 |
| 20260507161527 | 22 | 123 | 3.2 | 8.0 | 0.00 | 0.00 | 0.00 | 52 | 1011.8 |
| 20260507160021 | 22 | 137 | 3.2 | 11.3 | 0.00 | 0.00 | 0.00 | 52 | 1011.7 |
| 20260507154521 | 23 | 158 | 3.2 | 11.3 | 0.00 | 0.00 | 0.00 | 51 | 1012.0 |
| 20260507153017 | 23 | 103 | 3.2 | 16.1 | 0.00 | 0.00 | 0.00 | 50 | 1011.8 |
| 20260507151516 | 23 | 101 | 3.2 | 20.9 | 0.00 | 0.00 | 0.00 | 52 | 1011.7 |
| 20260507150016 | 23 | 154 | 3.2 | 12.9 | 0.00 | 0.00 | 0.00 | 50 | 1011.6 |
| 20260507144514 | 24 | 137 | 1.6 | 14.5 | 0.00 | 0.00 | 0.00 | 53 | 1011.7 |
| 20260507143019 | 25 | 152 | 3.2 | 16.1 | 0.00 | 0.00 | 0.00 | 50 | 1011.6 |
| 20260507141510 | 24 | 155 | 1.6 | 12.9 | 0.00 | 0.00 | 0.00 | 52 | 1011.7 |
| 20260507140009 | 25 | 147 | 3.2 | 16.1 | 0.00 | 0.00 | 0.00 | 48 | 1011.6 |
| 20260507134515 | 25 | 137 | 4.8 | 14.5 | 0.00 | 0.00 | 0.00 | 48 | 1011.8 |
| 20260507133012 | 25 | 157 | 6.4 | 14.5 | 0.00 | 0.00 | 0.00 | 47 | 1011.9 |
| 20260507131506 | 25 | 145 | 3.2 | 12.9 | 0.00 | 0.00 | 0.00 | 43 | 1012.2 |
| 20260507130002 | 24 | 121 | 4.8 | 14.5 | 0.00 | 0.00 | 0.00 | 42 | 1012.2 |
| 20260507124504 | 24 | 119 | 4.8 | 11.3 | 0.00 | 0.00 | 0.00 | 45 | 1012.4 |
| 20260507123000 | 24 | 114 | 3.2 | 12.9 | 0.00 | 0.00 | 0.00 | 41 | 1012.4 |
| 20260507121604 | 23 | 107 | 4.8 | 17.7 | 0.00 | 0.00 | 0.00 | 43 | 1012.2 |
| 20260507120103 | 23 | 75 | 3.2 | 14.5 | 0.00 | 0.00 | 0.00 | 45 | 1012.3 |
| 20260507114607 | 23 | 170 | 1.6 | 8.0 | 0.00 | 0.00 | 0.00 | 49 | 1012.2 |
| 20260507113055 | 23 | 322 | 3.2 | 14.5 | 0.00 | 0.00 | 0.00 | 42 | 1012.2 |
| 20260507111551 | 23 | 114 | 3.2 | 12.9 | 0.00 | 0.00 | 0.00 | 47 | 1012.4 |
| 20260507110058 | 22 | 88 | 1.6 | 14.5 | 0.00 | 0.00 | 0.00 | 44 | 1012.5 |
| 20260507104548 | 22 | 178 | 4.8 | 16.1 | 0.00 | 0.00 | 0.00 | 51 | 1012.7 |
| 20260507103048 | 22 | 98 | 1.6 | 14.5 | 0.00 | 0.00 | 0.00 | 47 | 1012.9 |
| 20260507101550 | 22 | 13 | 0.0 | 11.3 | 0.00 | 0.00 | 0.00 | 53 | 1013.1 |
| 20260507100044 | 21 | 80 | 4.8 | 12.9 | 0.00 | 0.00 | 0.00 | 52 | 1013.0 |
| 20260507094550 | 22 | 85 | 3.2 | 11.3 | 0.00 | 0.00 | 0.00 | 52 | 1013.0 |
| 20260507093039 | 21 | 115 | 3.2 | 9.7 | 0.00 | 0.00 | 0.00 | 53 | 1013.1 |
| 20260507091537 | 20 | 109 | 3.2 | 9.7 | 0.00 | 0.00 | 0.00 | 56 | 1013.1 |
| 20260507090038 | 20 | 360 | 1.6 | 9.7 | 0.00 | 0.00 | 0.00 | 58 | 1013.2 |
| 20260507084534 | 20 | 323 | 3.2 | 14.5 | 0.00 | 0.00 | 0.00 | 60 | 1013.1 |
| 20260507083032 | 20 | 130 | 3.2 | 8.0 | 0.00 | 0.00 | 0.00 | 67 | 1013.0 |
| 20260507081535 | 19 | 129 | 3.2 | 8.0 | 0.00 | 0.00 | 0.00 | 64 | 1013.1 |
| 20260507080024 | 18 | 138 | 1.6 | 6.4 | 0.00 | 0.00 | 0.00 | 69 | 1013.1 |
| 20260507074529 | 17 | 115 | 3.2 | 6.4 | 0.00 | 0.00 | 0.00 | 67 | 1013.1 |
| 20260507073017 | 16 | 54 | 0.0 | 4.8 | 0.00 | 0.00 | 0.00 | 74 | 1013.3 |
| 20260507071513 | 15 | 284 | 3.2 | 6.4 | 0.00 | 0.00 | 0.00 | 75 | 1013.2 |
| 20260507070012 | 15 | 113 | 1.6 | 9.7 | 0.00 | 0.00 | 0.00 | 82 | 1013.1 |
| 20260507064505 | 13 | 132 | 0.0 | 4.8 | 0.00 | 0.00 | 0.00 | 87 | 1013.1 |
| 20260507063002 | 12 | 360 | 0.0 | 6.4 | 0.00 | 0.00 | 0.00 | 91 | 1013.2 |
| 20260507061502 | 10 | 18 | 0.0 | 0.0 | 0.00 | 0.00 | 0.00 | 95 | 1013.1 |
| 20260507060100 | 9 | 17 | 0.0 | 0.0 | 0.00 | 0.00 | 0.00 | 95 | 1013.0 |
| 20260507054559 | 8 | 17 | 0.0 | 0.0 | 0.00 | 0.00 | 0.00 | 94 | 1013.1 |
| 20260507053058 | 8 | 17 | 0.0 | 0.0 | 0.00 | 0.00 | 0.00 | 93 | 1012.9 |
| 20260507051557 | 8 | 17 | 0.0 | 0.0 | 0.00 | 0.00 | 0.00 | 93 | 1012.8 |
| 20260507050059 | 7 | 16 | 0.0 | 0.0 | 0.00 | 0.00 | 0.00 | 93 | 1012.7 |
| 20260507044555 | 8 | 16 | 0.0 | 0.0 | 0.00 | 0.00 | 0.00 | 93 | 1012.6 |
| 20260507043057 | 8 | 30 | 0.0 | 0.0 | 0.00 | 0.00 | 0.00 | 92 | 1012.6 |
| 20260507041558 | 8 | 30 | 0.0 | 0.0 | 0.00 | 0.00 | 0.00 | 93 | 1012.5 |
| 20260507034605 | 8 | 65 | 0.0 | 0.0 | 0.00 | 0.03 | 0.00 | 91 | 1012.5 |
| 20260507033101 | 9 | 68 | 0.0 | 0.0 | 0.00 | 0.03 | 0.00 | 90 | 1012.6 |
| 20260507031543 | 9 | 68 | 0.0 | 0.0 | 0.00 | 0.03 | 0.00 | 90 | 1012.5 |
| 20260507030040 | 10 | 68 | 0.0 | 0.0 | 0.00 | 0.03 | 0.00 | 90 | 1012.5 |
| 20260507024550 | 10 | 69 | 0.0 | 0.0 | 0.00 | 0.03 | 0.00 | 89 | 1012.6 |
| 20260507023039 | 10 | 69 | 0.0 | 0.0 | 0.00 | 0.03 | 0.00 | 89 | 1012.6 |
| 20260507021534 | 10 | 68 | 0.0 | 0.0 | 0.00 | 0.03 | 0.00 | 90 | 1012.4 |
| 20260507020036 | 10 | 68 | 0.0 | 0.0 | 0.00 | 0.89 | 0.00 | 90 | 1012.6 |
| 20260507014533 | 10 | 69 | 0.0 | 8.0 | 0.00 | 0.89 | 0.00 | 90 | 1012.6 |
| 20260507013036 | 10 | 258 | 0.0 | 4.8 | 0.00 | 0.89 | 0.00 | 89 | 1012.6 |
| 20260507011531 | 10 | 355 | 0.0 | 1.6 | 0.00 | 0.89 | 0.00 | 88 | 1012.6 |
| 20260507010036 | 11 | 355 | 0.0 | 1.6 | 0.00 | 1.27 | 0.00 | 87 | 1012.7 |
| 20260507004526 | 11 | 355 | 1.6 | 6.4 | 0.00 | 1.27 | 0.00 | 88 | 1012.7 |
| 20260507003022 | 11 | 335 | 0.0 | 3.2 | 0.00 | 1.27 | 0.00 | 86 | 1012.8 |
| 20260507001520 | 11 | 355 | 0.0 | 0.0 | 0.00 | 1.27 | 0.00 | 86 | 1013.0 |
| 20260507000020 | 11 | 355 | 1.6 | 4.8 | 0.00 | 1.27 | 0.00 | 85 | 1013.0 |
| 20260506234536 | 12 | 5 | 0.0 | 6.4 | 0.00 | 1.27 | 0.00 | 85 | 1013.1 |
| 20260506233019 | 12 | 346 | 4.8 | 9.7 | 0.00 | 1.27 | 0.00 | 85 | 1013.2 |
| 20260506231517 | 11 | 355 | 3.2 | 8.0 | 0.00 | 1.27 | 0.00 | 85 | 1013.3 |
| 20260506230016 | 11 | 344 | 3.2 | 6.4 | 0.00 | 1.27 | 0.00 | 85 | 1013.3 |
| 20260506224524 | 11 | 5 | 1.6 | 6.4 | 0.00 | 1.27 | 0.00 | 85 | 1013.3 |
| 20260506223012 | 11 | 307 | 1.6 | 8.0 | 0.00 | 1.27 | 0.00 | 84 | 1013.3 |
| 20260506221512 | 12 | 355 | 1.6 | 6.4 | 0.00 | 1.27 | 0.00 | 83 | 1013.2 |
| 20260506220017 | 12 | 334 | 0.0 | 3.2 | 0.00 | 1.35 | 1.27 | 82 | 1012.9 |
| 20260506214506 | 12 | 331 | 0.0 | 4.8 | 0.00 | 1.35 | 1.27 | 82 | 1012.7 |